This is the latest recevied weather packets stored in our database for station/object KE4LOJ. If no packets are shown the sender has not sent any weather packets the latest 10 day(s).
| Time | Temp. | Humidity | Pressure | Rain* | Wind** | Luminosity | Snow |
|---|---|---|---|---|---|---|---|
| 1777940315 | 22.22° C | 67% | 1016.2 hPa | 0 mm | - | 0 W/m² | - |
| 1777940012 | 22.22° C | 67% | 1016.1 hPa | 0 mm | - | 0 W/m² | - |
| 1777939709 | 22.22° C | 67% | 1016.2 hPa | 0 mm | - | 1 W/m² | - |
| 1777939407 | 22.22° C | 66% | 1016.3 hPa | 0 mm | - | 2 W/m² | - |
| 1777939103 | 22.78° C | 66% | 1016.2 hPa | 0 mm | - | 4 W/m² | - |
| 1777938800 | 22.78° C | 65% | 1016.1 hPa | 0 mm | - | 7 W/m² | - |
| 1777938497 | 22.78° C | 65% | 1016 hPa | 0 mm | - | 10 W/m² | - |
| 1777938195 | 22.78° C | 64% | 1015.9 hPa | 0 mm | - | 13 W/m² | - |
| 1777937891 | 22.78° C | 64% | 1016 hPa | 0 mm | - | 16 W/m² | - |
| 1777937586 | 23.33° C | 63% | 1016 hPa | 0 mm | - | 19 W/m² | - |
| 1777937283 | 23.33° C | 63% | 1016 hPa | 0 mm | - | 22 W/m² | - |
| 1777936981 | 23.33° C | 62% | 1016 hPa | 0 mm | - | 25 W/m² | - |
| 1777936678 | 23.33° C | 62% | 1015.9 hPa | 0 mm | - | 28 W/m² | - |
| 1777936374 | 23.33° C | 62% | 1015.9 hPa | 0 mm | - | 30 W/m² | - |
| 1777936070 | 23.33° C | 61% | 1015.8 hPa | 0 mm | - | 33 W/m² | - |
| 1777935768 | 23.89° C | 62% | 1015.6 hPa | 0 mm | - | 35 W/m² | - |
| 1777935467 | 23.89° C | 61% | 1015.8 hPa | 0 mm | - | 38 W/m² | - |
| 1777935163 | 23.89° C | 60% | 1015.7 hPa | 0 mm | - | 40 W/m² | - |
| 1777934860 | 23.89° C | 60% | 1016 hPa | 0 mm | - | 88 W/m² | - |
| 1777934557 | 23.89° C | 60% | 1016 hPa | 0 mm | - | 56 W/m² | - |
| 1777934253 | 23.89° C | 59% | 1015.8 hPa | 0 mm | - | 113 W/m² | - |
| 1777933949 | 23.89° C | 60% | 1015.8 hPa | 0 mm | - | 61 W/m² | - |
| 1777933646 | 24.44° C | 59% | 1015.9 hPa | 0 mm | - | 149 W/m² | - |
| 1777933343 | 25° C | 57% | 1015.7 hPa | 0 mm | - | 218 W/m² | - |
| 1777933041 | 24.44° C | 58% | 1015.9 hPa | 0 mm | - | 240 W/m² | - |
* Rain latest hour (hover to see other rain measurements)
** Current wind speed in m/s (hover to see current wind gust speed)